カタログに戻る

COSMOS 1275 DEB

運用中PO
NORAD 42233·DEBRIS·🇷🇺 Russia

打ち上げ Jun 4, 1981 から Plesetsk Cosmodrome

Loading…

次のパス (今後24時間)

TLE

経年Source: Space-Track

元期: Sep 8, 2026, 10:08 UTC

1 42233U 81053UZ  26251.42278657  .00000506  00000-0  55331-3 0  9999
2 42233  83.0398 295.6807 0130640 275.2984  83.3274 13.67255814591559

AllMySatでCOSMOS 1275 DEBをリアルタイム追跡

Download on the App Store